| time (UTC) | temp C | wind direction | speed KPH | gust KPH | rain 1hr cm | rain 24hr cm | rain mn cm | humidity % | barometer mb |
| 20260506201611 | 10 | 195 | 51.5 | 51.5 | 0.03 | 3.05 | 2.82 | 83 | 1006.8 |
| 20260506200111 | 10 | 195 | 51.5 | 51.5 | 0.08 | 3.12 | 2.82 | 83 | 1006.8 |
| 20260506194611 | 10 | 195 | 51.5 | 51.5 | 0.08 | 3.12 | 2.82 | 83 | 1006.8 |
| 20260506193111 | 11 | 195 | 51.5 | 51.5 | 0.08 | 3.12 | 2.82 | 83 | 1006.7 |
| 20260506191611 | 11 | 195 | 51.5 | 51.5 | 0.05 | 3.10 | 2.79 | 84 | 1005.7 |
| 20260506190111 | 11 | 195 | 51.5 | 51.5 | 0.03 | 3.12 | 2.77 | 84 | 1005.7 |
| 20260506184611 | 11 | 195 | 51.5 | 51.5 | 0.00 | 3.12 | 2.74 | 85 | 1005.6 |
| 20260506183111 | 12 | 195 | 51.5 | 51.5 | 0.00 | 3.12 | 2.74 | 85 | 1005.6 |
| 20260506181610 | 12 | 195 | 51.5 | 51.5 | 0.00 | 3.12 | 2.74 | 85 | 1005.6 |
| 20260506180111 | 12 | 195 | 51.5 | 51.5 | 0.00 | 3.17 | 2.74 | 85 | 1005.6 |
| 20260506174611 | 12 | 195 | 51.5 | 51.5 | 0.00 | 3.17 | 2.74 | 85 | 1005.5 |
| 20260506173110 | 12 | 195 | 51.5 | 51.5 | 0.00 | 3.17 | 2.74 | 85 | 1005.5 |
| 20260506171611 | 12 | 195 | 51.5 | 51.5 | 0.00 | 3.17 | 2.74 | 85 | 1004.5 |
| 20260506170111 | 13 | 195 | 51.5 | 51.5 | 0.00 | 3.17 | 2.74 | 84 | 1004.4 |
| 20260506164611 | 14 | 195 | 51.5 | 51.5 | 0.00 | 3.17 | 2.74 | 83 | 1004.3 |
| 20260506163111 | 14 | 195 | 51.5 | 51.5 | 0.00 | 3.17 | 2.74 | 82 | 1004.3 |
| 20260506161611 | 15 | 195 | 51.5 | 51.5 | 0.00 | 3.17 | 2.74 | 79 | 1004.2 |
| 20260506160111 | 16 | 195 | 51.5 | 51.5 | 0.00 | 3.17 | 2.74 | 79 | 1004.2 |
| 20260506154611 | 16 | 195 | 51.5 | 51.5 | 0.00 | 3.17 | 2.74 | 79 | 1004.2 |
| 20260506153111 | 16 | 195 | 51.5 | 51.5 | 0.00 | 3.17 | 2.74 | 79 | 1004.2 |
| 20260506151610 | 17 | 195 | 51.5 | 51.5 | 0.00 | 3.17 | 2.74 | 75 | 1004.1 |
| 20260506150111 | 17 | 195 | 51.5 | 51.5 | 0.00 | 3.17 | 2.74 | 75 | 1004.1 |
| 20260506144611 | 17 | 195 | 51.5 | 51.5 | 0.00 | 3.17 | 2.74 | 75 | 1004.1 |
| 20260506143110 | 17 | 195 | 51.5 | 51.5 | 0.00 | 3.17 | 2.74 | 74 | 1004.0 |
| 20260506141611 | 16 | 195 | 51.5 | 51.5 | 0.00 | 3.17 | 2.74 | 77 | 1004.1 |
| 20260506140110 | 16 | 195 | 51.5 | 51.5 | 0.00 | 3.20 | 2.74 | 76 | 1004.1 |
| 20260506134611 | 13 | 195 | 51.5 | 51.5 | 0.00 | 3.20 | 2.74 | 84 | 1004.4 |
| 20260506133111 | 13 | 195 | 51.5 | 51.5 | 0.00 | 3.20 | 2.74 | 84 | 1004.4 |
| 20260506131611 | 13 | 195 | 51.5 | 51.5 | 0.30 | 3.20 | 2.74 | 84 | 1004.4 |
| 20260506130111 | 13 | 195 | 51.5 | 51.5 | 0.79 | 3.20 | 2.74 | 84 | 1004.4 |
| 20260506124611 | 13 | 195 | 51.5 | 51.5 | 0.84 | 3.17 | 2.72 | 84 | 1004.4 |
| 20260506123111 | 12 | 195 | 51.5 | 51.5 | 0.76 | 3.07 | 2.64 | 85 | 1004.5 |
| 20260506121610 | 12 | 195 | 51.5 | 51.5 | 0.56 | 2.87 | 2.44 | 85 | 1004.5 |
| 20260506120110 | 13 | 195 | 51.5 | 51.5 | 0.08 | 2.39 | 1.96 | 84 | 1004.4 |
| 20260506114610 | 14 | 195 | 51.5 | 51.5 | 0.00 | 2.34 | 1.88 | 80 | 1004.3 |
| 20260506113111 | 14 | 195 | 51.5 | 51.5 | 0.00 | 2.31 | 1.88 | 80 | 1004.3 |
| 20260506111610 | 13 | 195 | 51.5 | 51.5 | 0.00 | 2.31 | 1.88 | 82 | 1004.4 |
| 20260506110110 | 13 | 195 | 51.5 | 51.5 | 0.00 | 2.31 | 1.88 | 82 | 1004.4 |
| 20260506104611 | 13 | 195 | 51.5 | 51.5 | 0.00 | 2.31 | 1.88 | 82 | 1004.4 |
| 20260506103110 | 13 | 195 | 51.5 | 51.5 | 0.00 | 2.31 | 1.88 | 82 | 1004.4 |
| 20260506101611 | 13 | 195 | 51.5 | 51.5 | 0.00 | 2.31 | 1.88 | 81 | 1004.4 |
| 20260506100110 | 14 | 195 | 51.5 | 51.5 | 0.00 | 2.31 | 1.88 | 82 | 1004.3 |
| 20260506094610 | 15 | 195 | 51.5 | 51.5 | 0.00 | 2.31 | 1.88 | 84 | 1004.3 |
| 20260506093110 | 13 | 195 | 51.5 | 51.5 | 0.03 | 2.31 | 1.88 | 85 | 1004.4 |
| 20260506091611 | 13 | 195 | 51.5 | 51.5 | 0.03 | 2.31 | 1.85 | 84 | 1004.5 |
| 20260506090111 | 13 | 195 | 51.5 | 51.5 | 0.05 | 2.31 | 1.85 | 84 | 1004.5 |
| 20260506084610 | 12 | 195 | 51.5 | 51.5 | 0.05 | 2.31 | 1.85 | 84 | 1004.5 |
| 20260506083111 | 11 | 195 | 51.5 | 51.5 | 0.05 | 2.31 | 1.85 | 84 | 1004.6 |
| 20260506081610 | 11 | 195 | 51.5 | 51.5 | 0.03 | 2.29 | 1.83 | 84 | 1004.6 |
| 20260506080110 | 11 | 195 | 51.5 | 51.5 | 0.03 | 2.26 | 1.80 | 84 | 1004.6 |
| 20260506073111 | 11 | 195 | 51.5 | 51.5 | 0.05 | 2.26 | 1.80 | 84 | 1004.6 |
| 20260506071610 | 11 | 195 | 51.5 | 51.5 | 0.08 | 2.24 | 1.80 | 84 | 1004.6 |
| 20260506070111 | 11 | 195 | 51.5 | 51.5 | 0.05 | 2.24 | 1.78 | 84 | 1004.7 |
| 20260506061610 | 11 | 195 | 51.5 | 51.5 | 0.00 | 2.18 | 1.73 | 84 | 1004.7 |
| 20260506060111 | 10 | 195 | 51.5 | 51.5 | 0.00 | 2.18 | 1.73 | 84 | 1003.7 |
| 20260506050111 | 10 | 195 | 51.5 | 51.5 | 0.03 | 2.18 | 1.73 | 84 | 1004.7 |
| 20260506044611 | 10 | 195 | 51.5 | 51.5 | 0.08 | 2.18 | 1.73 | 84 | 1004.7 |
| 20260506043111 | 10 | 195 | 51.5 | 51.5 | 0.10 | 2.18 | 1.73 | 84 | 1004.7 |
| 20260506041611 | 10 | 195 | 51.5 | 51.5 | 0.18 | 2.18 | 1.70 | 84 | 1003.7 |
| 20260506040111 | 10 | 195 | 51.5 | 51.5 | 0.23 | 2.21 | 1.70 | 84 | 1003.7 |
| 20260506034611 | 10 | 195 | 51.5 | 51.5 | 0.25 | 2.16 | 1.65 | 84 | 1004.7 |
| 20260506033111 | 11 | 195 | 51.5 | 51.5 | 0.28 | 2.13 | 1.60 | 84 | 1004.7 |
| 20260506031611 | 11 | 195 | 51.5 | 51.5 | 0.25 | 2.06 | 1.52 | 84 | 1004.7 |
| 20260506030111 | 10 | 195 | 51.5 | 51.5 | 0.28 | 1.98 | 1.47 | 84 | 1004.7 |
| 20260506024611 | 11 | 195 | 51.5 | 51.5 | 0.33 | 1.93 | 1.40 | 83 | 1004.7 |
| 20260506023111 | 11 | 195 | 51.5 | 51.5 | 0.33 | 1.83 | 1.32 | 83 | 1004.7 |
| 20260506021611 | 11 | 195 | 51.5 | 51.5 | 0.41 | 1.78 | 1.27 | 83 | 1004.7 |
| 20260506020111 | 11 | 195 | 51.5 | 51.5 | 0.36 | 1.70 | 1.17 | 83 | 1004.7 |
| 20260506014611 | 10 | 195 | 51.5 | 51.5 | 0.33 | 1.57 | 1.07 | 83 | 1004.7 |
| 20260506013111 | 11 | 195 | 51.5 | 51.5 | 0.33 | 1.50 | 0.99 | 83 | 1004.7 |
| 20260506011611 | 10 | 195 | 51.5 | 51.5 | 0.25 | 1.37 | 0.86 | 83 | 1005.7 |
| 20260506010111 | 11 | 195 | 51.5 | 51.5 | 0.28 | 1.32 | 0.81 | 83 | 1005.7 |
| 20260506004611 | 11 | 195 | 51.5 | 51.5 | 0.33 | 1.27 | 0.74 | 83 | 1005.7 |
| 20260506003111 | 11 | 195 | 51.5 | 51.5 | 0.38 | 1.17 | 0.66 | 83 | 1005.7 |
| 20260506001611 | 11 | 195 | 51.5 | 51.5 | 0.41 | 1.12 | 0.58 | 83 | 1005.7 |
| 20260506000111 | 11 | 195 | 51.5 | 51.5 | 0.38 | 1.07 | 0.53 | 83 | 1005.7 |
| 20260505234611 | 11 | 195 | 51.5 | 51.5 | 0.30 | 0.94 | 0.41 | 83 | 1005.6 |
| 20260505233111 | 11 | 195 | 51.5 | 51.5 | 0.20 | 0.81 | 0.28 | 83 | 1005.6 |
| 20260505231611 | 11 | 195 | 51.5 | 51.5 | 0.15 | 0.74 | 0.20 | 83 | 1005.6 |
| 20260505230111 | 12 | 195 | 51.5 | 51.5 | 0.15 | 0.69 | 0.15 | 83 | 1005.6 |
| 20260505224611 | 12 | 195 | 51.5 | 51.5 | 0.15 | 0.64 | 0.10 | 83 | 1005.6 |
| 20260505223111 | 12 | 195 | 51.5 | 51.5 | 0.18 | 0.61 | 0.08 | 83 | 1005.6 |
| 20260505221611 | 12 | 195 | 51.5 | 51.5 | 0.20 | 0.58 | 0.05 | 83 | 1005.6 |
| 20260505220111 | 12 | 195 | 51.5 | 51.5 | 0.20 | 0.56 | 0.56 | 83 | 1006.6 |
| 20260505214611 | 12 | 195 | 51.5 | 51.5 | 0.18 | 0.48 | 0.48 | 83 | 1006.6 |
| 20260505213111 | 12 | 195 | 51.5 | 51.5 | 0.15 | 0.46 | 0.46 | 83 | 1006.6 |
| 20260505211611 | 12 | 195 | 51.5 | 51.5 | 0.15 | 0.41 | 0.41 | 83 | 1006.6 |
| 20260505210111 | 12 | 195 | 51.5 | 51.5 | 0.10 | 0.33 | 0.33 | 84 | 1006.6 |
| 20260505204611 | 12 | 195 | 51.5 | 51.5 | 0.08 | 0.33 | 0.33 | 84 | 1006.5 |
| 20260505203111 | 12 | 195 | 51.5 | 51.5 | 0.08 | 0.28 | 0.28 | 84 | 1006.5 |